N5TDX Weather Reports


time (UTC)temp
F
wind
direction
speed
knots
gust
knots
rain 1hr
in
rain 24hr
in
rain mn
in
humidity
%
barometer
mb
20260906224817 98 184 1.7 2.6 0.00 0.00 0.00 36 1007.9
20260906224314 99 93 0.9 5.2 0.00 0.00 0.00 37 1007.9
20260906223810 99 89 3.5 6.1 0.00 0.00 0.00 36 1008.1
20260906223306 99 75 1.7 3.5 0.00 0.00 0.00 37 1007.9
20260906222804 99 40 3.5 7.0 0.00 0.00 0.00 36 1007.9
20260906222306 99 84 1.7 3.5 0.00 0.00 0.00 36 1008.0
20260906221801 99 73 0.9 3.5 0.00 0.00 0.00 36 1008.3
20260906221301 99 71 3.5 6.1 0.00 0.00 0.00 36 1008.1
20260906220757 99 139 3.5 7.0 0.00 0.00 0.00 36 1008.3
20260906220251 98 257 0.0 1.7 0.00 0.00 0.00 36 1008.3
20260906215751 99 99 5.2 7.0 0.00 0.00 0.00 35 1008.1
20260906215251 99 56 0.9 3.5 0.00 0.00 0.00 36 1008.4
20260906214749 99 99 5.2 7.0 0.00 0.00 0.00 36 1008.2
20260906214244 98 193 3.5 3.5 0.00 0.00 0.00 37 1008.2
20260906213743 98 64 0.9 1.7 0.00 0.00 0.00 37 1008.5
20260906213243 99 109 3.5 6.1 0.00 0.00 0.00 36 1008.6
20260906212740 99 104 4.3 6.1 0.00 0.00 0.00 36 1008.5
20260906212236 99 45 0.9 7.0 0.00 0.00 0.00 37 1008.4
20260906211736 100 62 1.7 3.5 0.00 0.00 0.00 36 1008.5
20260906211231 100 55 0.9 3.5 0.00 0.00 0.00 36 1008.6
20260906210726 100 50 2.6 7.0 0.00 0.00 0.00 35 1008.7
20260906210221 100 154 0.0 5.2 0.00 0.00 0.00 36 1009.0
20260906205716 99 105 0.9 2.6 0.00 0.00 0.00 35 1009.0
20260906205213 99 83 2.6 7.8 0.00 0.00 0.00 36 1009.0
20260906204713 101 31 1.7 2.6 0.00 0.00 0.00 35 1008.9
20260906204212 101 32 1.7 7.0 0.00 0.00 0.00 35 1008.9
20260906203712 102 65 0.9 2.6 0.00 0.00 0.00 36 1008.9
20260906203207 100 48 1.7 3.5 0.00 0.00 0.00 36 1009.1
20260906202704 101 71 2.6 7.8 0.00 0.00 0.00 36 1009.3
20260906202203 101 211 1.7 5.2 0.00 0.00 0.00 36 1009.3
20260906201658 100 11 3.5 5.2 0.00 0.00 0.00 36 1009.0
20260906201157 101 36 3.5 7.0 0.00 0.00 0.00 35 1009.4
20260906200654 101 38 1.7 1.7 0.00 0.00 0.00 36 1009.3
20260906200149 101 100 3.5 6.1 0.00 0.00 0.00 36 1009.5
20260906195650 100 118 3.5 7.8 0.00 0.00 0.00 36 1009.5
20260906195146 100 90 0.9 6.1 0.00 0.00 0.00 38 1009.3
20260906194642 99 111 1.7 6.1 0.00 0.00 0.00 38 1009.6
20260906194137 100 50 0.9 3.5 0.00 0.00 0.00 38 1009.5
20260906193632 100 62 0.9 5.2 0.00 0.00 0.00 38 1009.7
20260906193127 101 93 1.7 6.1 0.00 0.00 0.00 38 1009.5
20260906192623 101 86 3.5 6.1 0.00 0.00 0.00 37 1009.7
20260906192122 101 114 4.3 6.1 0.00 0.00 0.00 37 1009.7
20260906191618 101 109 0.9 2.6 0.00 0.00 0.00 37 1009.9
20260906191117 101 69 1.7 2.6 0.00 0.00 0.00 38 1009.9
20260906190616 101 71 3.5 6.1 0.00 0.00 0.00 37 1010.0
20260906190111 101 86 2.6 3.5 0.00 0.00 0.00 38 1009.9
20260906185610 101 112 4.3 6.1 0.00 0.00 0.00 38 1010.0
20260906185109 101 114 1.7 5.2 0.00 0.00 0.00 37 1010.0
20260906184604 99 162 0.9 3.5 0.00 0.00 0.00 38 1010.2
20260906184100 99 40 1.7 2.6 0.00 0.00 0.00 39 1010.5
20260906183555 99 51 1.7 6.1 0.00 0.00 0.00 38 1010.3
20260906183051 100 100 3.5 5.2 0.00 0.00 0.00 38 1010.5
20260906182546 99 91 0.0 3.5 0.00 0.00 0.00 39 1010.7
20260906182042 99 126 3.5 3.5 0.00 0.00 0.00 38 1010.6
20260906181537 99 138 2.6 5.2 0.00 0.00 0.00 39 1010.7
20260906181034 99 161 0.9 3.5 0.00 0.00 0.00 39 1010.8
20260906180534 99 318 0.9 2.6 0.00 0.00 0.00 39 1010.7
20260906180033 99 101 5.2 7.8 0.00 0.00 0.00 39 1010.9
20260906175532 98 9 0.0 0.9 0.00 0.00 0.00 41 1010.8
20260906175032 98 47 0.9 5.2 0.00 0.00 0.00 40 1010.9
20260906174530 98 99 5.2 7.0 0.00 0.00 0.00 41 1011.0
20260906174025 98 137 2.6 7.8 0.00 0.00 0.00 41 1011.2
20260906173520 98 86 3.5 8.7 0.00 0.00 0.00 41 1011.4
20260906173017 98 24 1.7 3.5 0.00 0.00 0.00 41 1011.3
20260906172511 99 155 1.7 2.6 0.00 0.00 0.00 41 1011.4
20260906172006 98 111 1.7 7.0 0.00 0.00 0.00 41 1011.5
20260906171501 98 74 0.9 3.5 0.00 0.00 0.00 40 1011.6
20260906170956 98 144 1.7 2.6 0.00 0.00 0.00 40 1011.6
20260906170452 97 226 1.7 3.5 0.00 0.00 0.00 42 1011.9
20260906165949 97 89 1.7 5.2 0.00 0.00 0.00 44 1011.8
20260906165448 97 127 0.9 1.7 0.00 0.00 0.00 44 1011.7
20260906164943 97 143 2.6 2.6 0.00 0.00 0.00 45 1012.0
20260906164442 96 63 0.9 5.2 0.00 0.00 0.00 44 1011.8
20260906163939 96 35 0.9 2.6 0.00 0.00 0.00 45 1011.9
20260906163434 96 62 1.7 1.7 0.00 0.00 0.00 45 1011.9
20260906162932 96 76 3.5 5.2 0.00 0.00 0.00 45 1011.9
20260906162431 95 64 0.9 6.1 0.00 0.00 0.00 46 1012.0
20260906161927 95 68 1.7 2.6 0.00 0.00 0.00 47 1012.0
20260906161426 95 90 0.9 1.7 0.00 0.00 0.00 48 1012.0
20260906160926 94 84 3.5 5.2 0.00 0.00 0.00 50 1012.0
20260906160424 93 36 1.7 3.5 0.00 0.00 0.00 52 1011.8
20260906155923 93 81 3.5 5.2 0.00 0.00 0.00 52 1011.7
20260906155416 92 114 1.7 1.7 0.00 0.00 0.00 53 1012.0
20260906154913 92 60 0.0 2.6 0.00 0.00 0.00 54 1011.9
20260906154413 93 78 1.7 1.7 0.00 0.00 0.00 52 1011.7
20260906153912 92 3 0.0 0.9 0.00 0.00 0.00 54 1012.0
20260906153410 92 29 0.9 3.5 0.00 0.00 0.00 54 1012.1
20260906152906 92 78 1.7 2.6 0.00 0.00 0.00 54 1012.1
20260906152400 92 110 0.9 2.6 0.00 0.00 0.00 54 1011.9
20260906151900 91 86 0.0 1.7 0.00 0.00 0.00 56 1011.5
20260906151355 92 102 1.7 2.6 0.00 0.00 0.00 54 1011.7
20260906150851 92 128 0.9 1.7 0.00 0.00 0.00 54 1011.6
20260906150346 91 106 0.9 1.7 0.00 0.00 0.00 56 1011.6
20260906145845 90 98 0.9 2.6 0.00 0.00 0.00 57 1011.7
20260906145344 90 77 0.0 2.6 0.00 0.00 0.00 57 1011.7
20260906144839 90 98 1.7 2.6 0.00 0.00 0.00 58 1011.6
20260906144329 89 150 0.9 1.7 0.00 0.00 0.00 58 1011.5
20260906143828 89 119 1.7 1.7 0.00 0.00 0.00 60 1011.8
20260906143325 88 105 0.0 1.7 0.00 0.00 0.00 60 1011.6
20260906142820 88 112 0.9 0.9 0.00 0.00 0.00 61 1011.4
20260906142315 87 142 0.0 1.7 0.00 0.00 0.00 62 1011.8
20260906141814 87 100 0.9 1.7 0.00 0.00 0.00 62 1011.6
20260906141309 87 231 0.9 1.7 0.00 0.00 0.00 63 1011.5
20260906140808 86 106 0.9 1.7 0.00 0.00 0.00 64 1011.7
20260906140303 86 62 0.0 0.9 0.00 0.00 0.00 65 1011.5
20260906135800 85 82 0.9 1.7 0.00 0.00 0.00 65 1011.5
20260906135255 85 215 0.0 0.0 0.00 0.00 0.00 66 1011.6
20260906134751 84 109 0.0 0.9 0.00 0.00 0.00 67 1011.4
20260906134246 84 78 0.9 1.7 0.00 0.00 0.00 68 1011.5
20260906133742 83 105 0.9 1.7 0.00 0.00 0.00 69 1011.3
20260906133237 83 94 1.7 2.6 0.00 0.00 0.00 69 1011.5
20260906132732 82 87 0.9 0.9 0.00 0.00 0.00 70 1011.2
20260906132228 82 105 1.7 1.7 0.00 0.00 0.00 71 1011.3
20260906131723 82 92 0.0 0.9 0.00 0.00 0.00 72 1011.2
20260906131218 81 108 0.0 0.9 0.00 0.00 0.00 73 1011.4
20260906130714 80 97 0.0 1.7 0.00 0.00 0.00 75 1011.5
20260906130209 80 106 0.9 2.6 0.00 0.00 0.00 75 1011.2
20260906125707 80 99 0.9 1.7 0.00 0.00 0.00 76 1011.4
20260906125205 80 104 1.7 1.7 0.00 0.00 0.00 76 1011.3
20260906124701 79 117 0.9 1.7 0.00 0.00 0.00 76 1011.4
20260906124156 79 81 0.9 0.9 0.00 0.00 0.00 77 1011.2
20260906123655 79 104 0.9 0.9 0.00 0.00 0.00 78 1011.1
20260906123150 78 96 0.9 1.7 0.00 0.00 0.00 78 1011.3
20260906122649 78 88 0.0 0.9 0.00 0.00 0.00 78 1011.1
20260906122145 78 94 0.0 0.9 0.00 0.00 0.00 79 1011.1
20260906121641 78 103 0.0 0.9 0.00 0.00 0.00 79 1011.2
20260906121138 78 124 0.0 0.0 0.00 0.00 0.00 79 1011.1
20260906120633 77 124 0.0 0.0 0.00 0.00 0.00 80 1010.7
20260906120131 77 125 0.0 0.0 0.00 0.00 0.00 79 1010.7
20260906115630 78 125 0.0 0.0 0.00 0.00 0.00 79 1010.8
20260906115126 78 125 0.0 0.0 0.00 0.00 0.00 79 1010.6
20260906114625 78 125 0.0 0.0 0.00 0.00 0.00 79 1010.6
20260906114120 78 126 0.0 0.0 0.00 0.00 0.00 79 1010.5
20260906113621 78 126 0.0 0.0 0.00 0.00 0.00 78 1010.5
20260906113120 78 124 0.0 0.0 0.00 0.00 0.00 78 1010.6
20260906112620 78 123 0.0 0.0 0.00 0.00 0.00 78 1010.7
20260906112117 78 125 0.0 0.0 0.00 0.00 0.00 77 1010.5
20260906111616 78 131 0.0 0.9 0.00 0.00 0.00 77 1010.5
20260906111111 78 121 0.9 1.7 0.00 0.00 0.00 78 1010.5
20260906110606 78 126 0.0 0.0 0.00 0.00 0.00 78 1010.6
20260906110106 78 126 0.0 0.0 0.00 0.00 0.00 78 1010.3
20260906105600 78 126 0.0 0.0 0.00 0.00 0.00 78 1010.5
20260906105056 78 126 0.0 0.0 0.00 0.00 0.00 78 1010.0
20260906104555 78 126 0.0 0.0 0.00 0.00 0.00 78 1010.0
20260906104049 78 133 0.0 0.0 0.00 0.00 0.00 79 1010.2
20260906103548 78 144 0.0 0.0 0.00 0.00 0.00 78 1010.5
20260906103044 78 144 0.0 0.0 0.00 0.00 0.00 78 1010.3
20260906102544 78 144 0.0 0.0 0.00 0.00 0.00 78 1010.1
20260906102039 78 143 0.0 0.0 0.00 0.00 0.00 78 1010.2
20260906101539 78 143 0.0 0.0 0.00 0.00 0.00 77 1010.0
20260906101033 79 143 0.0 0.0 0.00 0.00 0.00 77 1010.0
20260906100529 79 129 0.0 0.0 0.00 0.00 0.00 76 1009.9
20260906100029 79 202 0.0 0.0 0.00 0.00 0.00 76 1009.7
20260906095524 79 202 0.0 0.0 0.00 0.00 0.00 76 1009.9
20260906095020 79 202 0.0 0.0 0.00 0.00 0.00 76 1009.8
20260906094518 79 202 0.0 0.0 0.00 0.00 0.00 75 1009.6
20260906094014 79 202 0.0 0.0 0.00 0.00 0.00 75 1009.8
20260906093510 80 202 0.0 0.0 0.00 0.00 0.00 74 1009.6
20260906093010 80 203 0.0 0.0 0.00 0.00 0.00 74 1009.6
20260906092505 80 145 0.0 0.0 0.00 0.00 0.00 74 1009.6
20260906092000 80 140 0.0 0.0 0.00 0.00 0.00 74 1009.6
20260906091456 80 161 0.0 0.0 0.00 0.00 0.00 74 1009.5
20260906090953 80 193 0.0 0.0 0.00 0.00 0.00 73 1009.4
20260906090448 80 186 0.0 0.0 0.00 0.00 0.00 73 1009.4
20260906085947 80 183 0.0 0.0 0.00 0.00 0.00 74 1009.6
20260906085446 80 162 0.0 0.0 0.00 0.00 0.00 74 1009.3
20260906084945 80 149 0.0 0.0 0.00 0.00 0.00 74 1009.3
20260906084441 80 147 0.0 0.0 0.00 0.00 0.00 73 1009.1
20260906083939 81 167 0.0 0.0 0.00 0.00 0.00 73 1009.5
20260906083436 81 222 0.0 0.0 0.00 0.00 0.00 72 1009.4
20260906082934 81 221 0.0 0.0 0.00 0.00 0.00 72 1009.4
20260906082430 81 224 0.0 0.0 0.00 0.00 0.00 72 1009.1
20260906081926 81 226 0.0 0.0 0.00 0.00 0.00 72 1009.3
20260906081421 81 230 0.0 1.7 0.00 0.00 0.00 72 1009.5
20260906080917 81 225 0.0 0.9 0.00 0.00 0.00 72 1009.5
20260906080414 82 218 0.9 0.9 0.00 0.00 0.00 72 1009.6
20260906075912 82 223 0.0 0.9 0.00 0.00 0.00 71 1009.8
20260906075408 82 185 0.9 0.9 0.00 0.00 0.00 71 1009.8
20260906074903 82 139 0.0 0.0 0.00 0.00 0.00 71 1009.8
20260906074403 82 169 0.0 0.9 0.00 0.00 0.00 70 1009.8
20260906073901 82 100 0.0 0.0 0.00 0.00 0.00 70 1010.1
20260906073356 82 103 0.0 0.0 0.00 0.00 0.00 70 1009.7
20260906072853 82 134 0.0 0.9 0.00 0.00 0.00 69 1009.8
20260906072348 82 131 1.7 2.6 0.00 0.00 0.00 69 1009.7
20260906071844 82 259 0.0 1.7 0.00 0.00 0.00 69 1009.6
20260906071339 83 135 0.0 0.0 0.00 0.00 0.00 69 1009.7
20260906070835 83 122 0.0 1.7 0.00 0.00 0.00 69 1009.6
20260906070331 83 182 0.9 0.9 0.00 0.00 0.00 69 1009.6
20260906065827 83 128 0.0 0.9 0.00 0.00 0.00 69 1009.6
20260906065321 83 111 0.0 0.9 0.00 0.00 0.00 69 1009.8
20260906064817 83 177 0.0 0.9 0.00 0.00 0.00 69 1009.8
20260906064313 83 197 0.0 0.9 0.00 0.00 0.00 69 1010.1
20260906063813 83 137 0.9 0.9 0.00 0.00 0.00 69 1010.0
20260906063308 83 126 0.0 0.9 0.00 0.00 0.00 68 1010.2
20260906062803 83 33 0.0 0.9 0.00 0.00 0.00 68 1010.0
20260906062305 83 224 0.0 0.0 0.00 0.00 0.00 68 1009.8
20260906061758 83 142 0.0 0.0 0.00 0.00 0.00 68 1010.0
20260906061254 83 259 0.0 0.0 0.00 0.00 0.00 67 1009.9
20260906060749 84 259 0.0 0.0 0.00 0.00 0.00 67 1010.2
20260906060247 84 275 0.0 0.9 0.00 0.00 0.00 66 1010.0
20260906055742 84 135 0.0 0.9 0.00 0.00 0.00 66 1010.0
20260906055237 84 177 0.0 0.0 0.00 0.00 0.00 66 1009.9
20260906054733 84 91 0.9 0.9 0.00 0.00 0.00 65 1010.0
20260906054228 84 126 0.0 0.0 0.00 0.00 0.00 65 1010.1
20260906053724 84 198 0.0 0.0 0.00 0.00 0.00 65 1010.1
20260906053220 85 237 0.0 0.9 0.00 0.00 0.00 65 1010.2
20260906052715 85 219 0.0 0.9 0.00 0.00 0.00 64 1010.0
20260906052211 85 327 0.0 0.9 0.00 0.00 0.00 64 1010.2
20260906051708 85 180 0.0 0.0 0.00 0.00 0.00 64 1010.2
20260906051207 85 149 0.0 0.0 0.00 0.00 0.00 63 1010.2
20260906050702 85 163 0.9 1.7 0.00 0.00 0.00 63 1010.2
20260906050157 85 354 0.0 0.9 0.00 0.00 0.00 63 1010.2
20260906045655 86 197 0.9 1.7 0.00 0.00 0.00 62 1009.9
20260906045151 86 143 1.7 2.6 0.00 0.00 0.00 62 1010.0
20260906044647 86 226 0.9 0.9 0.00 0.00 0.00 62 1009.8
20260906044142 86 124 0.9 1.7 0.00 0.00 0.00 62 1009.9
20260906043638 86 259 0.0 0.9 0.00 0.00 0.00 62 1009.7
20260906043134 86 203 0.0 0.9 0.00 0.00 0.00 62 1010.0
20260906042633 86 100 0.9 2.6 0.00 0.00 0.00 62 1009.8
20260906042127 86 147 0.9 3.5 0.00 0.00 0.00 62 1009.7
20260906041624 86 87 0.9 1.7 0.00 0.00 0.00 62 1010.0
20260906041124 87 118 0.0 1.7 0.00 0.00 0.00 61 1010.0
20260906040620 87 127 0.0 0.9 0.00 0.00 0.00 61 1009.8
20260906040115 87 154 0.0 0.9 0.00 0.00 0.00 61 1009.8
20260906035610 87 170 0.0 0.9 0.00 0.00 0.00 61 1010.0
20260906035106 87 125 0.9 1.7 0.00 0.00 0.00 61 1009.8
20260906034605 87 146 1.7 2.6 0.00 0.00 0.00 60 1009.9
20260906034101 87 132 0.0 2.6 0.00 0.00 0.00 60 1009.8
20260906033556 88 87 1.7 2.6 0.00 0.00 0.00 60 1009.8
20260906033051 88 166 1.7 3.5 0.00 0.00 0.00 59 1010.0
20260906032548 88 127 1.7 3.5 0.00 0.00 0.00 59 1010.0
20260906032047 88 172 0.9 1.7 0.00 0.00 0.00 59 1009.9
20260906031543 88 123 1.7 2.6 0.00 0.00 0.00 58 1009.9
20260906031039 88 73 1.7 5.2 0.00 0.00 0.00 58 1009.8
20260906030538 88 186 0.9 3.5 0.00 0.00 0.00 58 1010.1
20260906030038 88 99 0.9 5.2 0.00 0.00 0.00 57 1009.9
20260906025538 89 170 2.6 6.1 0.00 0.00 0.00 57 1010.0
20260906025036 89 112 1.7 5.2 0.00 0.00 0.00 56 1009.9
20260906024532 89 131 1.7 3.5 0.00 0.00 0.00 55 1009.5
20260906024031 89 130 3.5 6.1 0.00 0.00 0.00 55 1009.5
20260906023528 89 112 0.9 3.5 0.00 0.00 0.00 54 1009.6
20260906023022 89 168 1.7 5.2 0.00 0.00 0.00 54 1009.3
20260906022518 90 68 1.7 3.5 0.00 0.00 0.00 53 1009.3
20260906022013 90 194 0.9 3.5 0.00 0.00 0.00 53 1009.0
20260906021508 90 109 2.6 7.8 0.00 0.00 0.00 52 1009.2
20260906021003 90 9 1.7 3.5 0.00 0.00 0.00 52 1009.2
20260906020502 91 119 0.9 6.1 0.00 0.00 0.00 51 1008.9
20260906020001 91 33 0.9 5.2 0.00 0.00 0.00 49 1009.0
20260906015500 91 34 3.5 7.0 0.00 0.00 0.00 49 1009.0
20260906015000 91 100 2.6 7.0 0.00 0.00 0.00 48 1008.9
20260906014455 92 123 5.2 7.0 0.00 0.00 0.00 48 1008.7
20260906013951 93 189 3.5 5.2 0.00 0.00 0.00 46 1008.4
20260906013447 94 72 6.1 9.6 0.00 0.00 0.00 44 1008.5
20260906012943 94 113 0.9 1.7 0.00 0.00 0.00 42 1008.3
20260906012443 94 167 1.7 2.6 0.00 0.00 0.00 42 1008.2
20260906011942 94 96 1.7 6.1 0.00 0.00 0.00 41 1008.0
20260906011438 94 180 2.6 2.6 0.00 0.00 0.00 41 1008.1
20260906010933 95 158 0.9 1.7 0.00 0.00 0.00 40 1008.0
20260906010428 95 139 0.9 1.7 0.00 0.00 0.00 39 1008.3
20260906005924 95 82 1.7 1.7 0.00 0.00 0.00 38 1008.1
20260906005424 95 80 0.9 1.7 0.00 0.00 0.00 38 1008.1
20260906004922 96 114 0.9 1.7 0.00 0.00 0.00 38 1008.1
20260906004416 96 102 0.9 2.6 0.00 0.00 0.00 38 1008.1
20260906003912 96 60 1.7 1.7 0.00 0.00 0.00 37 1008.1
20260906003407 96 84 0.9 1.7 0.00 0.00 0.00 37 1007.9
20260906002903 97 144 0.9 1.7 0.00 0.00 0.00 37 1008.0
20260906002402 97 167 0.9 2.6 0.00 0.00 0.00 37 1008.1
20260906001857 97 115 0.9 2.6 0.00 0.00 0.00 36 1007.8
20260906001354 97 87 0.9 2.6 0.00 0.00 0.00 36 1008.1
20260906000853 97 105 1.7 2.6 0.00 0.00 0.00 36 1007.8
20260906000355 97 157 0.0 1.7 0.00 0.00 0.00 36 1007.9
20260905235849 97 125 1.7 1.7 0.00 0.00 0.00 35 1007.8
20260905235343 97 49 0.9 2.6 0.00 0.00 0.00 35 1007.9
20260905234838 97 254 0.9 2.6 0.00 0.00 0.00 36 1007.7
20260905234334 98 76 1.7 2.6 0.00 0.00 0.00 36 1007.8
20260905233829 97 122 0.9 3.5 0.00 0.00 0.00 37 1007.9
20260905233323 97 93 0.9 1.7 0.00 0.00 0.00 37 1007.8
20260905232822 97 57 1.7 6.1 0.00 0.00 0.00 36 1007.8
20260905232319 98 95 0.9 1.7 0.00 0.00 0.00 36 1007.7
20260905231814 98 101 3.5 6.1 0.00 0.00 0.00 35 1007.8
20260905231309 98 95 1.7 6.1 0.00 0.00 0.00 35 1007.9
20260905230806 98 86 2.6 3.5 0.00 0.00 0.00 36 1007.6
20260905230304 98 213 0.9 3.5 0.00 0.00 0.00 36 1007.8
20260905225803 98 94 0.9 3.5 0.00 0.00 0.00 35 1007.7
20260905225258 98 102 1.7 2.6 0.00 0.00 0.00 35 1007.8